London-Corbin, KY

11:35 PM EST on November 16, 2019 (GMT -0500)
London-Corbin / McKee

Weather History for KLOZ - May, 2019

Change the Weather History Date:

Wednesday, May 8, 2019

  Actual Average Record
Temperature  
Mean Temperature 69 °F 63 °F  
Max Temperature 83 °F 75 °F 88 °F (2015)
Min Temperature 54 °F 51 °F 32 °F (1989)
Degree Days  
Heating Degree Days 0 4  
Month to date heating degree days 9 36  
Since 1 July heating degree days 3989 4137  
Cooling Degree Days 4 2  
Month to date cooling degree days 20 11  
Year to date cooling degree days 32 37  
Growing Degree Days 18 (Base 50)    
Moisture  
Dew Point 59 °F    
Average Humidity 72    
Maximum Humidity 100    
Minimum Humidity 43    
Precipitation  
Precipitation 0.00 in 0.17 in 1.57 in (1972)
Month to date precipitation 2.53 1.28  
Sea Level Pressure  
Sea Level Pressure 30.03 in    
Wind  
Wind Speed 3 mph (SSE)    
Max Wind Speed 13 mph    
Max Gust Speed 19 mph    
Visibility 10 miles    
Events      
T = Trace of Precipitation, MM = Missing Value Source: NWS Daily Summary

Daily Weather History Graph

Daily Weather History Graph

Search for Another Location

Airport or City:

Astronomy

May. 08, 2019 Rise Set
Actual Time 6:34 AM EDT 8:31 PM EDT
Civil Twilight 6:06 AM EDT 9:00 PM EDT
Nautical Twilight 5:31 AM EDT 9:34 PM EDT
Astronomical Twilight 4:54 AM EDT 10:12 PM EDT
Moon 9:32 AM EDT (5/8) No Moon Set
Length of Visible Light 14h 53m
Length of Day
13h 56m
Waxing Crescent, 15% of the Moon is Illuminated
May 8
Waxing Crescent
May 11
First Quarter
May 18
Full
May 26
Last Quarter
Jun 3
New

Hourly Weather History & Observations

Time (EDT) Temp. Heat Index Dew Point Humidity Pressure Visibility Wind Dir Wind Speed Gust Speed Precip Events Conditions
12:53 AM 59.0 °F - 57.9 °F 96% 30.09 in 10.0 mi Calm Calm - N/A   Clear
1:53 AM 57.9 °F - 57.0 °F 97% 30.08 in 10.0 mi Calm Calm - N/A   Clear
2:53 AM 57.9 °F - 57.0 °F 97% 30.07 in 10.0 mi Calm Calm - N/A   Clear
3:53 AM 55.9 °F - 55.9 °F 100% 30.06 in 10.0 mi Calm Calm - N/A   Clear
4:53 AM 55.9 °F - 55.0 °F 97% 30.07 in 10.0 mi Calm Calm - N/A   Clear
5:53 AM 54.0 °F - 54.0 °F 100% 30.07 in 10.0 mi Calm Calm - N/A   Clear
6:53 AM 54.0 °F - 54.0 °F 100% 30.09 in 10.0 mi Calm Calm - N/A   Clear
7:53 AM 57.9 °F - 57.0 °F 97% 30.09 in 10.0 mi Calm Calm - N/A   Clear
8:53 AM 63.0 °F - 57.9 °F 84% 30.09 in 10.0 mi SE 3.5 mph - N/A   Clear
9:53 AM 69.1 °F - 59.0 °F 70% 30.09 in 10.0 mi Variable 4.6 mph - N/A   Clear
10:53 AM 75.0 °F - 60.1 °F 60% 30.08 in 10.0 mi Variable 4.6 mph - N/A   Clear
11:53 AM 78.1 °F - 61.0 °F 56% 30.07 in 10.0 mi Variable 5.8 mph - N/A   Clear
12:53 PM 80.1 °F 81.1 °F 61.0 °F 52% 30.05 in 10.0 mi South 6.9 mph - N/A   Partly Cloudy
1:53 PM 80.1 °F 81.1 °F 61.0 °F 52% 30.03 in 10.0 mi Variable 6.9 mph - N/A   Scattered Clouds
2:53 PM 82.0 °F 81.7 °F 57.0 °F 42% 30.01 in 10.0 mi South 9.2 mph - N/A   Partly Cloudy
3:53 PM 82.0 °F 82.1 °F 59.0 °F 45% 29.99 in 10.0 mi SE 4.6 mph - N/A   Clear
4:53 PM 82.0 °F 82.1 °F 59.0 °F 45% 29.97 in 10.0 mi Variable 6.9 mph - N/A   Clear
5:53 PM 82.0 °F 82.4 °F 60.1 °F 47% 29.96 in 10.0 mi South 6.9 mph - N/A   Clear
6:53 PM 81.0 °F 81.3 °F 59.0 °F 47% 29.95 in 10.0 mi SSE 5.8 mph - N/A   Clear
7:53 PM 79.0 °F - 62.1 °F 56% 29.95 in 6.0 mi SE 3.5 mph - N/A   Haze
8:53 PM 73.9 °F - 62.1 °F 66% 29.95 in 10.0 mi Calm Calm - N/A   Clear
9:53 PM 73.0 °F - 62.1 °F 68% 29.97 in 10.0 mi Calm Calm - N/A   Mostly Cloudy
10:53 PM 73.0 °F - 61.0 °F 66% 29.98 in 10.0 mi South 4.6 mph - N/A   Clear
11:53 PM 70.0 °F - 60.1 °F 71% 29.96 in 10.0 mi SE 3.5 mph - N/A   Clear